Location: Boston
(42.3580°N, 71.0600°W)
Time: 01:58:58
(UTC-04:00)

Envisat - Pass Details

Date: 11 October 2017
Orbit: 764 x 766 km, 98.2° (Epoch: 16 October)

Event Time Altitude Azimuth Distance (km) Brightness Sun altitude
Exits shadow 18:50:30 10° 78° (ENE) 2,293 4.8 -8.6°
Maximum altitude 18:52:11 12° 58° (ENE) 2,182 4.8 -8.9°
Drops below altitude 10° 18:53:56 10° 38° (NE) 2,309 5.1 -9.2°
Sets 18:57:50 0° 7° (N) 3,241 6.2 -9.9°
